Weather History for Dallas/Ft Worth, TX

Change the Weather History Date:

Thursday, January 1, 2009

  Actual Average Record
Temperature  
Mean Temperature 51 °F 45 °F  
Max Temperature 69 °F 56 °F 83 °F (2006)
Min Temperature 32 °F 35 °F 10 °F (1928)
Degree Days  
Heating Degree Days 14 20  
Month to date heating degree days 14 20  
Since 1 July heating degree days 748 932  
Cooling Degree Days 0 0  
Month to date cooling degree days 0 0  
Year to date cooling degree days 0 0  
Growing Degree Days 2 (Base 50)    
Moisture  
Dew Point 34 °F    
Average Humidity 52    
Maximum Humidity 72    
Minimum Humidity 32    
Precipitation  
Precipitation 0.00 in 0.06 in 1.04 in (1944)
Month to date precipitation 0.00 0.06  
Year to date precipitation 0.00 0.06  
Snow  
Snow 0.00 in 0.00 in 1.20 in (1985)
Month to date snowfall 0.0 0.0  
Since 1 July snowfall T 0.3  
Snow Depth 0.00 in    
Sea Level Pressure  
Sea Level Pressure 29.95 in    
Wind  
Wind Speed 12 mph (SSE)    
Max Wind Speed 24 mph    
Max Gust Speed 29 mph    
Visibility 10 miles    
Events      
T = Trace of Precipitation, MM = Missing Value Source: NWS Daily Summary

Daily Weather History Graph

Daily Weather History Graph

Search for Another Location

Airport:

Trip Planner

Search our weather history database for the weather conditions in past years. The results will help you decide how hot, cold, wet, or windy it might be!

Date:

Astronomy

Jan. 01, 2009 Rise Set
Actual Time 7:30 AM CST 5:32 PM CST
Civil Twilight 7:03 AM CST 6:00 PM CST
Nautical Twilight 6:32 AM CST 6:30 PM CST
Astronomical Twilight 6:02 AM CST 7:00 PM CST
Moon 10:34 AM CST (1/1) 10:29 PM CST (1/1)
Length of Visible Light 10h 56m
Length of Day
10h 02m
Waxing Crescent, 23% of the Moon is Illuminated
Jan 1
Waxing Crescent
Jan 4
First Quarter
Jan 10
Full
Jan 17
Last Quarter
Jan 26
New

Hourly Weather History & Observations

Time (CST) Temp. Windchill Dew Point Humidity Pressure Visibility Wind Dir Wind Speed Gust Speed Precip Events Conditions
12:53 AM 41.0 °F 37.1 °F 21.9 °F 47% 30.15 in 10.0 mi SSE 5.8 mph - N/A   Clear
1:53 AM 39.9 °F 35.8 °F 23.0 °F 51% 30.14 in 10.0 mi SSE 5.8 mph - N/A   Clear
2:53 AM 37.0 °F 33.3 °F 23.0 °F 57% 30.13 in 10.0 mi SSE 4.6 mph - N/A   Clear
3:53 AM 37.0 °F 31.6 °F 23.0 °F 57% 30.11 in 10.0 mi SE 6.9 mph - N/A   Partly Cloudy
4:53 AM 35.1 °F 28.6 °F 23.0 °F 61% 30.09 in 10.0 mi ESE 8.1 mph - N/A   Partly Cloudy
5:53 AM 35.1 °F 29.3 °F 23.0 °F 61% 30.08 in 10.0 mi SE 6.9 mph - N/A   Clear
6:53 AM 35.1 °F 28.6 °F 24.1 °F 64% 30.08 in 10.0 mi SE 8.1 mph - N/A   Clear
7:53 AM 35.1 °F 30.1 °F 25.0 °F 67% 30.08 in 10.0 mi ESE 5.8 mph - N/A   Clear
8:53 AM 41.0 °F 33.5 °F 28.0 °F 60% 30.06 in 10.0 mi SSE 13.8 mph - N/A   Clear
9:53 AM 46.9 °F - 27.0 °F 46% 30.04 in 10.0 mi South 16.1 mph - N/A   Clear
10:53 AM 52.0 °F - 28.9 °F 41% 30.00 in 10.0 mi South 18.4 mph - N/A   Clear
11:53 AM 57.0 °F - 32.0 °F 39% 29.95 in 10.0 mi South 17.3 mph - N/A   Clear
12:53 PM 62.1 °F - 35.1 °F 37% 29.90 in 10.0 mi South 15.0 mph - N/A   Clear
1:53 PM 64.9 °F - 37.0 °F 36% 29.87 in 10.0 mi South 13.8 mph - N/A   Clear
2:53 PM 68.0 °F - 37.9 °F 33% 29.82 in 10.0 mi South 18.4 mph - N/A   Clear
3:53 PM 69.1 °F - 39.0 °F 33% 29.81 in 10.0 mi South 20.7 mph - N/A   Clear
4:53 PM 66.9 °F - 39.9 °F 37% 29.80 in 10.0 mi South 17.3 mph - N/A   Partly Cloudy
5:53 PM 63.0 °F - 41.0 °F 45% 29.81 in 10.0 mi SSE 8.1 mph - N/A   Partly Cloudy
6:53 PM 61.0 °F - 42.1 °F 50% 29.82 in 10.0 mi South 9.2 mph - N/A   Clear
7:53 PM 60.1 °F - 43.0 °F 53% 29.83 in 10.0 mi South 9.2 mph - N/A   Clear
8:53 PM 60.1 °F - 50.0 °F 69% 29.81 in 10.0 mi South 13.8 mph - N/A   Clear
9:53 PM 59.0 °F - 50.0 °F 72% 29.83 in 10.0 mi South 10.4 mph - N/A   Clear
10:53 PM 59.0 °F - 50.0 °F 72% 29.82 in 10.0 mi South 12.7 mph - N/A   Clear
11:53 PM 57.0 °F - 50.0 °F 77% 29.82 in 10.0 mi South 12.7 mph - N/A   Clear